Regional Weather Roundup
Issued by NWS State College, PA

Home | Current Version | Previous Version | Text Only | Print | Product List | Glossary Off
Versions: 1 2 3 4 5 6 7 8 9 10 11 12 13 14 15 16 17 18 19 20 21 22 23 24 25 26 27 28 29 30 31 32 33 34 35 36 37 38 39 40 41 42 43 44 45 46 47 48 49 50

948
ASUS41 KCTP 250103
RWRCTP

REGIONAL WEATHER ROUNDUP
NATIONAL WEATHER SERVICE STATE COLLEGE PA
800 PM EST FRI NOV 24 2017

Note: "fair" indicates few or no clouds below 12,000 feet with no
significant weather and/or obstructions to visibility.

* = STATION THAT DOES NOT REPORT PRECIPITATION /E.G. RAIN...SNOW...ETC/
    THUNDER OR FOG.

PAZ002>004-007>009-013>016-020>023-029>032-250200-
WESTERN PENNSYLVANIA

CITY           SKY/WX    TMP DP  RH WIND       PRES   REMARKS
ERIE           CLEAR     49  24  37 S18       29.71F
MEADVILLE      CLEAR     44  23  43 S9        29.76F
FRANKLIN*      CLEAR     41  22  46 S10       29.79S
NEW CASTLE     FAIR      45  23  42 VRB6      29.80F
BEAVER COUNTY  NOT AVBL
BUTLER*        CLEAR     45  20  36 S7        29.81F
PITTSBURGH INT PTCLDY    42  22  44 S5        29.81F
PITTSBURGH     CLEAR     47  17  30 S9        29.82S
INDIANA*       CLEAR     34  25  69 E3        29.86F
LATROBE        CLEAR     36  23  60 CALM      29.84F
WASHINGTON CO* CLEAR     42  21  43 SW3       29.85S
$$

PAZ004>006-010>012-017>019-024>028-033>037-041-042-045-046-049>053-250200-
CENTRAL PENNSYLVANIA

CITY           SKY/WX    TMP DP  RH WIND       PRES   REMARKS
BRADFORD       CLOUDY    43  20  39 S7        29.78S
DUBOIS         CLEAR     44  17  33 S6        29.80F
CLEARFIELD     CLEAR     37  22  54 N5        29.84S
JOHNSTOWN      CLEAR     43  19  38 S12       29.83F
ALTOONA        CLEAR     42  24  49 S6        29.87S
STATE COLLEGE  CLEAR     43  23  45 S9        29.86F
WILLIAMSPORT   CLOUDY    49  25  39 VRB3G17   29.87S
SELINSGROVE    CLEAR     40  26  57 CALM      29.90F
FT INDIANTOWN  CLEAR     37  25  62 CALM      29.94R
CAPITAL CITY   CLEAR     43  25  49 SE7       29.93S
HARRISBURG     CLEAR     44  30  57 S6        29.93S
YORK           CLEAR     42  30  62 S5        29.94R
$$

PAZ038>040-043-044-047-048-054-055-060>062-067>071-250200-
EASTERN PENNSYLVANIA

CITY           SKY/WX    TMP DP  RH WIND       PRES   REMARKS
SCRANTON       CLEAR     43  21  41 CALM      29.90S
MOUNT POCONO   CLEAR     36  18  48 S6        29.89F
ALLENTOWN      CLEAR     40  21  46 CALM      29.95S
QUAKERTOWN*    CLEAR     34  25  69 CALM      29.96F
READING        CLEAR     43  26  51 CALM      29.94F
LANCASTER      CLEAR     39  26  59 CALM      29.96R
COATESVILLE    CLEAR     39  27  60 CALM      29.97S
POTTSTOWN      CLEAR     42  27  55 S5        29.98S
BLUE BELL      CLEAR     36  30  80 SW3       29.99R
DOYLESTOWN     CLEAR     41  25  53 CALM      29.96S
WILLOW GROVE   NOT AVBL
NORTH PHILA    CLEAR     45  27  49 MISG      30.00R
PHILADELPHIA   CLEAR     44  30  57 S9        29.99R
$$




USA.gov is the U.S. government's official web portal to all federal, state and local government web resources and services.